Regional Weather Roundup
Issued by NWS

Home | Current Version | Previous Version | Graphics & Text | Print | Product List | Glossary On
Versions: 1 2 3 4 5 6 7 8 9 10 11 12 13 14 15 16 17 18 19 20 21 22 23 24 25 26 27 28 29 30 31 32 33 34 35 36 37 38 39 40 41 42 43 44 45 46 47 48 49 50
522
ASUS45 KTFX 282210
RWRMT
MONTANA REGIONAL WEATHER ROUNDUP
NATIONAL WEATHER SERVICE GREAT FALLS MT
400 PM MDT THU JUL 28 2016

NOTE: "FAIR" INDICATES FEW OR NO CLOUDS BELOW 12000 FEET WITH NO
SIGNIFICANT WEATHER AND/OR OBSTRUCTIONS TO VISIBILITY.

MTZ001>007-043-282300-
WEST OF THE DIVIDE

CITY           SKY/WX    TMP DP  RH WIND       PRES   REMARKS
KALISPELL      SUNNY     85  52  32 SE9       30.07F
MISSOULA       SUNNY     90  46  21 N12G17    30.08F
BUTTE          SUNNY     82  37  20 W6        30.20F
MULLAN PASS    SUNNY     77  44  30 VRB6      30.29F
ANACONDA         N/A     82  46  28 N7        30.16F
DEER LODGE       N/A     84  43  23 CALM      30.18F
EUREKA           N/A     88  50  27 W3        30.07F
HAMILTON         N/A     86  46  25 NW6       30.10F
LIBBY            N/A     90  46  22 W3        30.05F
PLAINS           N/A     93  49  22 W2        30.04F
RONAN            N/A     86  46  24 E3        30.13F
THOMPSON FALLS   N/A     91  49  23 W6        30.07F
$$

MTZ008-052>055-282300-
SOUTHWEST MONTANA

CITY           SKY/WX    TMP DP  RH WIND       PRES   REMARKS
BOZEMAN        SUNNY     85  42  22 W10       30.15F
DILLON         SUNNY     85  42  22 N8        30.16F
W YELLOWSTONE  SUNNY     79  32  18 W9G18     30.27F
ENNIS          SUNNY     82  28  14 CALM      30.23F
THREE FORKS      N/A     85  85 100 E1        30.11F HX 107
TWIN BRIDGES     N/A     84  42  22 S3        30.13F
$$

MTZ009-010-012-014-046-048-049-054-282300-
EAST SLOPES AND CENTRAL MONTANA

CITY           SKY/WX    TMP DP  RH WIND       PRES   REMARKS
CUT BANK         N/A     83  46  27 NW10      30.11F
GREAT FALLS    SUNNY     84  44  24 CALM      30.12F
HELENA         SUNNY     88  46  23 N8        30.09F
CHOTEAU          N/A     84  46  26 E8G14     30.14F
CONRAD           N/A     81  54  39 NE2       30.14F
$$

MTZ011-013-016-021-045-047-050-051-282300-
NORTH CENTRAL MONTANA

CITY           SKY/WX    TMP DP  RH WIND       PRES   REMARKS
HAVRE          SUNNY     83  51  33 VRB3      30.10F
N BAR RANCH      N/A     77  48  36 VRB7G15   30.21F
CHINOOK          N/A     79  54  41 E9        30.11F
$$

MTZ017>020-022>027-061-062-282300-
NORTHEAST MONTANA

CITY           SKY/WX    TMP DP  RH WIND       PRES   REMARKS
GLASGOW        PTSUNNY   76  55  48 E6        30.12F
JORDAN           N/A     79  52  38 CALM      30.13F
SIDNEY         MOSUNNY   77  53  43 NE6       30.12F
WOLF POINT     CLOUDY    81  53  37 NE15      30.12F
PLENTYWOOD       N/A     75  50  41 CALM      30.14F
SCOBEY           N/A     76  48  37 NE2       30.13F
$$

MTZ028>42-056>058-282300-
SOUTHCENTRAL AND SOUTHEAST MONTANA

CITY           SKY/WX    TMP DP  RH WIND       PRES   REMARKS
BAKER          TSTM      71  61  70 VRB5      30.13F
BILLINGS       MOSUNNY   80  53  39 VRB6G21   30.15F
LIVINGSTON     LGT RAIN  78  49  35 NE13G21   30.16S
MILES CITY     MOSUNNY   79  53  40 VRB6      30.11F
EKALAKA          N/A     72  55  54 N6        30.12F
FORSYTH          N/A     79  54  41 CALM      30.12F
LAUREL           N/A     80  54  40 E6        30.13F
ROUNDUP          N/A     78  51  38 CALM      30.06F
$$

REGIONAL REPORTS...DAKOTAS

CITY           SKY/WX    TMP DP  RH WIND       PRES   REMARKS
WILLISTON      MOSUNNY   78  50  37 VRB3      30.13F
MINOT          SUNNY     78  51  38 NE8       30.12F
DICKINSON      CLOUDY    65  57  75 E7        30.14S
BEACH            N/A     70  63  78 NE12G18   30.17S
WATFORD CITY     N/A    N/A N/A N/A MISG        N/A
BISMARCK       CLOUDY    74  56  53 N6        30.11F
GRAND FORKS    MOSUNNY   77  56  48 N12       30.09F
FARGO          MOSUNNY   80  61  52 N9        30.05F
BUFFALO SD       N/A     66  61  84 NE3       30.08S
RAPID CITY     CLOUDY    75  57  53 NE13      30.12F
$$

REGIONAL REPORTS...WYOMING/IDAHO/WASHINGTON

CITY           SKY/WX    TMP DP  RH WIND       PRES   REMARKS
GILLETTE       MOSUNNY   74  55  51 N7        30.17F
SHERIDAN       PTSUNNY   83  51  33 N8        30.15F
BUFFALO WY     MOSUNNY   74  51  44 VRB6      30.22F
CODY           SUNNY     77  52  41 NE5       30.20F
YELLOWSTONE LA   N/A     76  28  17 MISG      30.36F
IDAHO FALLS    MOSUNNY   92  38  15 E7        30.11F
SALMON         SUNNY     91  39  16 N10       30.05F
BOISE          SUNNY     98  39  13 NW12G18   30.00F HX  93
SPOKANE        MOSUNNY   90  45  21 NW10G20   30.05F
$$

REGIONAL REPORTS...ALBERTA

CITY           SKY/WX    TMP DP  RH WIND       PRES   REMARKS
EDMONTON       MOSUNNY   79  57  47 W3        30.04F
CALGARY        MOSUNNY   77  59  53 SE3       30.10F
LETHBRIDGE     MOSUNNY   79  57  47 E8        30.08F
MEDICINE HAT   MOSUNNY   90  54  29 W7        30.06F
WATERTON GATE    N/A     81  50  34 SE6         N/A
MILK RIVER       N/A     82  50  32 E2          N/A
ONEFOUR          N/A     81  46  30 SE9         N/A
$$

REGIONAL REPORTS...SASKATCHEWAN

CITY           SKY/WX    TMP DP  RH WIND       PRES   REMARKS
SWIFT CURRENT  SUNNY     77  54  44 S5        30.11F
REGINA         PTSUNNY   75  50  41 SE7       30.12F
SASKATOON      PTSUNNY   82  54  36 SW13      30.08F
CYPRESS HILLS    N/A     73  46  38 S3          N/A
VAL MARIE        N/A     79  48  34 S1          N/A
ROCKGLEN         N/A     73  50  43 S3          N/A
$$




USA.gov is the U.S. government's official web portal to all federal, state and local government web resources and services.